Location: Écuvilly
(49.6505°N, 2.9206°E)
Time: 16:53:33
(UTC+00:00)

ISS - Pass Details

Date: 17 November 2025
Orbit: 416 x 420 km, 51.6° (Epoch: 09 December)

Event Time Altitude Azimuth Distance (km) Brightness Sun altitude
Rises 18:44:36 0° 262° (W) 2,365 1.4 -25.9°
Reaches altitude 10° 18:46:42 10° 264° (W) 1,501 0.1 -26.3°
Enters shadow 18:48:22 26° 270° (W) 856 -1.6 -26.5°
